Flag for U.S.A. Weather past 2 weeks in Pensacola, Florida, U.S.A.

Now
82 °F

Sunny.


Feels Like: 86 °F
Forecast: 70 / 87 °F
Wind: 5 mph from Southeast

Location: Pensacola Regional Airport

Current Time: Sep 18, 2014 at 11:44:38 AM

Latest Report: Sep 18, 2014 at 10:53 AM


Visibility: 10 mi

Pressure: 29.96 "Hg

Humidity: 70%

Dew point: 71 °F

Location of PensacolaLocation

Historic Weather in Pensacola — Graph

°F

Pensacola temperature yesterday

Maximum temperature yesterday: 86 °F (at 2:53 PM)
Minimum temperature yesterday: 69 °F (at 6:53 AM)
Average temperature yesterday: 77 °F

Past Weeks' High & Low Weather Summary

 TemperatureHumidityPressure
High90 °F (Sep 3, 1:53 PM)100% (Sep 3, 7:53 PM)30.15 "Hg (Sep 3, 7:53 PM)
Low69 °F (Sep 17, 6:53 AM)50% (Sep 3, 12:53 PM)29.88 "Hg (Sep 17, 5:53 PM)
Average79 °F85%30.01 "Hg
* Reported Sep 3 10:53 AM — Sep 18 10:53 AM, Pensacola, Weather by CustomWeather, © 2014

Note: Actual official high and low records may vary slightly from our data, if they occured in-between our weather recording intervals... More about our weather records

Advertising

Pensacola weather history for previous 24 hours

 ConditionsComfort  
Time TempWeatherWind HumidityBarometerVisibility
10:53 AM
Sep 18
82 °FSunny.5 mph70%29.96 "Hg10 mi
9:53 AM81 °FSunny.7 mph69%29.95 "Hg10 mi
8:53 AM79 °FPassing clouds.3 mph74%29.94 "Hg10 mi
7:53 AM75 °FSunny.3 mph90%29.92 "Hg10 mi
6:53 AM71 °FSunny.5 mph100%29.91 "Hg10 mi
5:53 AM72 °FClear.3 mph100%29.90 "Hg10 mi
4:53 AM73 °FClear.5 mph97%29.90 "Hg10 mi
3:53 AM73 °FClear.5 mph97%29.89 "Hg10 mi
2:53 AM73 °FClear.No wind97%29.90 "Hg10 mi
1:53 AM74 °FClear.3 mph94%29.90 "Hg10 mi
12:53 AM73 °FClear.No wind97%29.90 "Hg10 mi
11:53 PM
Sep 17
73 °FClear.No wind97%29.92 "Hg10 mi
10:53 PM75 °FClear.No wind90%29.93 "Hg10 mi
9:53 PM77 °FPartly cloudy.9 mph90%29.94 "Hg10 mi
8:53 PM78 °FClear.No wind84%29.92 "Hg10 mi
7:53 PM77 °FClear.No wind88%29.91 "Hg10 mi
6:53 PM80 °FClear.6 mph76%29.90 "Hg10 mi
5:53 PM81 °FSunny.8 mph77%29.88 "Hg10 mi
4:53 PM80 °FHeavy rain. Mostly cloudy.10 mph81%29.88 "Hg10 mi
3:53 PM85 °FSunny.12 mph65%29.88 "Hg10 mi
2:53 PM86 °FPartly sunny.9 mph63%29.90 "Hg10 mi
1:53 PM84 °FPartly sunny.7 mph63%29.92 "Hg10 mi
12:53 PM85 °FPassing clouds.8 mph65%29.94 "Hg10 mi
11:53 AM84 °FScattered clouds.5 mph67%29.95 "Hg10 mi
Weather by CustomWeather, © 2014

See weather overviewHow to use our weather pages